Time,TemperatureF,DewpointF,PressureIn,WindDirection,WindDirectionDegrees,WindSpeedMPH,WindSpeedGustMPH,Humidity,HourlyPrecipIn,Conditions,Clouds,dailyrainin,SoftwareType,DateUTC
2013-04-14 00:03:00,43.1,40.0,25.11,WSW,254,0.0,-999.0,88,-99.99,,,0.00,weatherlink.com 1.10,2013-04-14 04:03:00,
2013-04-14 00:18:00,43.3,40.0,25.11,WSW,238,0.0,-999.0,87,-99.99,,,0.00,weatherlink.com 1.10,2013-04-14 04:18:00,
2013-04-14 00:33:00,43.3,39.0,25.11,WSW,238,0.0,-999.0,86,-99.99,,,0.00,weatherlink.com 1.10,2013-04-14 04:33:00,
2013-04-14 00:48:00,43.3,39.0,25.11,WSW,238,0.0,-999.0,86,-99.99,,,0.00,weatherlink.com 1.10,2013-04-14 04:48:00,
2013-04-14 01:03:00,43.3,40.0,25.11,WSW,238,0.0,-999.0,87,-99.99,,,0.00,weatherlink.com 1.10,2013-04-14 05:03:00,
2013-04-14 01:18:00,43.0,39.0,25.11,WSW,238,0.0,-999.0,87,-99.99,,,0.00,weatherlink.com 1.10,2013-04-14 05:18:00,
2013-04-14 01:33:00,42.5,39.0,25.11,WSW,238,0.0,-999.0,87,-99.99,,,0.00,weatherlink.com 1.10,2013-04-14 05:33:00,
2013-04-14 01:48:00,42.2,39.0,25.11,WSW,238,0.0,-999.0,87,-99.99,,,0.00,weatherlink.com 1.10,2013-04-14 05:48:00,
2013-04-14 02:03:00,42.0,38.0,25.11,WSW,238,0.0,-999.0,86,-99.99,,,0.00,weatherlink.com 1.10,2013-04-14 06:03:00,
2013-04-14 02:18:00,41.2,37.0,25.11,WSW,238,0.0,-999.0,86,-99.99,,,0.00,weatherlink.com 1.10,2013-04-14 06:18:00,
2013-04-14 02:33:00,40.6,37.0,25.11,WSW,238,0.0,-999.0,87,-99.99,,,0.00,weatherlink.com 1.10,2013-04-14 06:33:00,
2013-04-14 02:48:00,39.8,36.0,25.11,WSW,238,0.0,-999.0,87,-99.99,,,0.00,weatherlink.com 1.10,2013-04-14 06:48:00,
2013-04-14 03:03:00,38.9,36.0,25.11,WSW,238,0.0,-999.0,88,-99.99,,,0.00,weatherlink.com 1.10,2013-04-14 07:03:00,
2013-04-14 03:18:00,38.3,35.0,25.11,WSW,238,0.0,-999.0,89,-99.99,,,0.00,weatherlink.com 1.10,2013-04-14 07:18:00,
2013-04-14 03:33:00,38.2,36.0,25.11,WSW,238,0.0,-999.0,90,-99.99,,,0.00,weatherlink.com 1.10,2013-04-14 07:33:00,
2013-04-14 03:48:00,37.9,35.0,25.11,WSW,238,0.0,-999.0,90,-99.99,,,0.00,weatherlink.com 1.10,2013-04-14 07:48:00,
2013-04-14 04:03:00,38.0,35.0,25.11,WSW,238,0.0,-999.0,90,-99.99,,,0.00,weatherlink.com 1.10,2013-04-14 08:03:00,
2013-04-14 04:18:00,38.0,35.0,25.11,WSW,238,0.0,-999.0,90,-99.99,,,0.00,weatherlink.com 1.10,2013-04-14 08:18:00,
2013-04-14 04:33:00,38.1,36.0,25.11,WSW,238,0.0,-999.0,91,-99.99,,,0.00,weatherlink.com 1.10,2013-04-14 08:33:00,
2013-04-14 04:48:00,38.4,36.0,25.11,WSW,238,0.0,-999.0,91,-99.99,,,0.00,weatherlink.com 1.10,2013-04-14 08:48:00,
2013-04-14 05:03:00,38.5,36.0,25.11,WSW,238,0.0,-999.0,91,-99.99,,,0.00,weatherlink.com 1.10,2013-04-14 09:03:00,
2013-04-14 05:18:00,38.4,36.0,25.11,WSW,238,0.0,-999.0,91,-99.99,,,0.00,weatherlink.com 1.10,2013-04-14 09:18:00,
2013-04-14 05:33:00,38.4,36.0,24.84,WSW,238,0.0,-999.0,91,-99.99,,,0.00,weatherlink.com 1.10,2013-04-14 09:33:00,
2013-04-14 05:48:00,38.4,36.0,24.84,WSW,238,0.0,-999.0,91,-99.99,,,0.00,weatherlink.com 1.10,2013-04-14 09:48:00,
2013-04-14 06:03:00,38.4,36.0,24.80,WSW,238,0.0,-999.0,91,-99.99,,,0.00,weatherlink.com 1.10,2013-04-14 10:03:00,
2013-04-14 06:18:00,38.5,36.0,24.80,WSW,238,0.0,-999.0,91,-99.99,,,0.00,weatherlink.com 1.10,2013-04-14 10:18:00,
2013-04-14 06:33:00,38.4,36.0,24.80,WSW,238,0.0,-999.0,91,-99.99,,,0.00,weatherlink.com 1.10,2013-04-14 10:33:00,
2013-04-14 06:48:00,38.2,36.0,24.80,WSW,238,0.0,-999.0,91,-99.99,,,0.00,weatherlink.com 1.10,2013-04-14 10:48:00,
2013-04-14 07:03:00,38.5,36.0,24.80,WSW,238,0.0,-999.0,92,-99.99,,,0.00,weatherlink.com 1.10,2013-04-14 11:03:00,
2013-04-14 07:18:00,39.1,37.0,24.80,WSW,238,0.0,-999.0,92,-99.99,,,0.00,weatherlink.com 1.10,2013-04-14 11:18:00,
2013-04-14 07:33:00,41.0,39.0,24.80,SSW,200,0.0,-999.0,92,-99.99,,,0.00,weatherlink.com 1.10,2013-04-14 11:33:00,
2013-04-14 07:48:00,42.7,39.0,24.80,SSW,207,0.0,-999.0,87,-99.99,,,0.00,weatherlink.com 1.10,2013-04-14 11:48:00,
2013-04-14 08:03:00,45.4,38.0,24.80,NNE,13,0.0,-999.0,76,-99.99,,,0.00,weatherlink.com 1.10,2013-04-14 12:03:00,
2013-04-14 08:18:00,47.0,37.0,24.80,WNW,300,1.0,-999.0,68,-99.99,,,0.00,weatherlink.com 1.10,2013-04-14 12:18:00,
2013-04-14 08:33:00,48.1,37.0,24.80,West,265,0.0,-999.0,65,-99.99,,,0.00,weatherlink.com 1.10,2013-04-14 12:33:00,
2013-04-14 08:48:00,47.3,36.0,24.80,NW,319,0.0,-999.0,64,-99.99,,,0.00,weatherlink.com 1.10,2013-04-14 12:48:00,
2013-04-14 09:03:00,47.2,36.0,24.80,NNW,333,2.0,-999.0,65,-99.99,,,0.00,weatherlink.com 1.10,2013-04-14 13:03:00,
2013-04-14 09:18:00,47.2,35.0,24.80,SW,221,7.0,-999.0,63,-99.99,,,0.00,weatherlink.com 1.10,2013-04-14 13:18:00,
2013-04-14 09:33:00,47.7,35.0,24.80,NW,317,0.0,-999.0,61,-99.99,,,0.00,weatherlink.com 1.10,2013-04-14 13:33:00,
2013-04-14 09:48:00,46.5,34.0,24.80,WSW,256,4.0,-999.0,61,-99.99,,,0.00,weatherlink.com 1.10,2013-04-14 13:48:00,
2013-04-14 10:03:00,45.8,32.0,24.80,NW,319,3.0,-999.0,60,-99.99,,,0.00,weatherlink.com 1.10,2013-04-14 14:03:00,
2013-04-14 10:18:00,45.6,34.0,24.80,SW,225,0.0,-999.0,63,-99.99,,,0.00,weatherlink.com 1.10,2013-04-14 14:18:00,
2013-04-14 10:33:00,45.5,34.0,24.84,SW,221,0.0,-999.0,64,-99.99,,,0.00,weatherlink.com 1.10,2013-04-14 14:33:00,
2013-04-14 10:48:00,45.8,33.0,24.84,WNW,302,3.0,-999.0,62,-99.99,,,0.00,weatherlink.com 1.10,2013-04-14 14:48:00,
2013-04-14 11:03:00,46.9,34.0,24.84,WNW,286,1.0,-999.0,62,-99.99,,,0.00,weatherlink.com 1.10,2013-04-14 15:03:00,
2013-04-14 11:18:00,48.2,33.0,24.92,NW,308,0.0,-999.0,57,-99.99,,,0.00,weatherlink.com 1.10,2013-04-14 15:18:00,
2013-04-14 11:33:00,51.2,34.0,24.88,NW,315,6.0,-999.0,52,-99.99,,,0.00,weatherlink.com 1.10,2013-04-14 15:33:00,
2013-04-14 11:48:00,51.4,34.0,25.07,NW,323,4.0,-999.0,52,-99.99,,,0.00,weatherlink.com 1.10,2013-04-14 15:48:00,
2013-04-14 12:03:00,52.5,32.0,24.92,NW,313,0.0,-999.0,46,-99.99,,,0.00,weatherlink.com 1.10,2013-04-14 16:03:00,
2013-04-14 12:18:00,49.9,32.0,25.11,WNW,296,4.0,-999.0,50,-99.99,,,0.00,weatherlink.com 1.10,2013-04-14 16:18:00,
2013-04-14 12:33:00,50.4,31.0,25.11,WNW,303,1.0,-999.0,48,-99.99,,,0.00,weatherlink.com 1.10,2013-04-14 16:33:00,
2013-04-14 12:48:00,49.8,31.0,25.11,NW,321,0.0,-999.0,49,-99.99,,,0.00,weatherlink.com 1.10,2013-04-14 16:48:00,
2013-04-14 13:03:00,50.6,31.0,25.11,NW,325,4.0,-999.0,47,-99.99,,,0.00,weatherlink.com 1.10,2013-04-14 17:03:00,
2013-04-14 13:18:00,49.6,30.0,25.11,West,270,3.0,-999.0,48,-99.99,,,0.00,weatherlink.com 1.10,2013-04-14 17:18:00,
2013-04-14 13:33:00,49.6,31.0,25.11,North,351,0.0,-999.0,49,-99.99,,,0.00,weatherlink.com 1.10,2013-04-14 17:33:00,
2013-04-14 13:48:00,51.7,32.0,25.11,WNW,282,7.0,-999.0,47,-99.99,,,0.00,weatherlink.com 1.10,2013-04-14 17:48:00,
2013-04-14 14:03:00,50.1,29.0,25.11,NW,311,3.0,-999.0,45,-99.99,,,0.00,weatherlink.com 1.10,2013-04-14 18:03:00,
2013-04-14 14:18:00,50.5,30.0,25.11,SW,234,4.0,-999.0,46,-99.99,,,0.00,weatherlink.com 1.10,2013-04-14 18:18:00,
2013-04-14 14:33:00,50.5,32.0,25.11,NW,314,1.0,-999.0,49,-99.99,,,0.00,weatherlink.com 1.10,2013-04-14 18:33:00,
2013-04-14 14:48:00,50.3,32.0,25.11,NE,51,1.0,-999.0,50,-99.99,,,0.00,weatherlink.com 1.10,2013-04-14 18:48:00,
2013-04-14 15:03:00,51.2,31.0,25.11,NW,306,2.0,-999.0,46,-99.99,,,0.00,weatherlink.com 1.10,2013-04-14 19:03:00,
2013-04-14 15:18:00,50.4,30.0,25.11,WNW,294,0.0,-999.0,45,-99.99,,,0.00,weatherlink.com 1.10,2013-04-14 19:18:00,
2013-04-14 15:33:00,50.6,30.0,25.11,NW,314,1.0,-999.0,46,-99.99,,,0.00,weatherlink.com 1.10,2013-04-14 19:33:00,
2013-04-14 15:48:00,51.1,31.0,25.11,WNW,283,0.0,-999.0,46,-99.99,,,0.00,weatherlink.com 1.10,2013-04-14 19:48:00,
2013-04-14 16:03:00,50.0,30.0,25.11,West,261,4.0,-999.0,47,-99.99,,,0.00,weatherlink.com 1.10,2013-04-14 20:03:00,
2013-04-14 16:18:00,49.5,30.0,25.11,NW,309,0.0,-999.0,47,-99.99,,,0.00,weatherlink.com 1.10,2013-04-14 20:18:00,
2013-04-14 16:33:00,49.1,29.0,25.11,NW,318,9.0,-999.0,47,-99.99,,,0.00,weatherlink.com 1.10,2013-04-14 20:33:00,
2013-04-14 16:48:00,50.8,31.0,25.11,NW,304,0.0,-999.0,46,-99.99,,,0.00,weatherlink.com 1.10,2013-04-14 20:48:00,
2013-04-14 17:03:00,49.0,30.0,25.11,West,276,0.0,-999.0,48,-99.99,,,0.00,weatherlink.com 1.10,2013-04-14 21:03:00,
2013-04-14 17:18:00,48.5,29.0,25.11,West,266,2.0,-999.0,48,-99.99,,,0.00,weatherlink.com 1.10,2013-04-14 21:18:00,
2013-04-14 17:33:00,48.2,30.0,25.11,SW,221,0.0,-999.0,49,-99.99,,,0.00,weatherlink.com 1.10,2013-04-14 21:33:00,
2013-04-14 17:48:00,48.1,29.0,25.11,NW,313,0.0,-999.0,48,-99.99,,,0.00,weatherlink.com 1.10,2013-04-14 21:48:00,
2013-04-14 18:03:00,47.7,29.0,24.92,NW,311,1.0,-999.0,49,-99.99,,,0.00,weatherlink.com 1.10,2013-04-14 22:03:00,
2013-04-14 18:18:00,47.2,28.0,24.88,NW,319,10.0,-999.0,48,-99.99,,,0.00,weatherlink.com 1.10,2013-04-14 22:18:00,
2013-04-14 18:33:00,46.7,29.0,24.92,NNW,329,3.0,-999.0,50,-99.99,,,0.00,weatherlink.com 1.10,2013-04-14 22:33:00,
2013-04-14 18:48:00,46.2,29.0,25.07,North,355,1.0,-999.0,51,-99.99,,,0.00,weatherlink.com 1.10,2013-04-14 22:48:00,
2013-04-14 19:03:00,45.7,29.0,25.11,WSW,257,0.0,-999.0,52,-99.99,,,0.00,weatherlink.com 1.10,2013-04-14 23:03:00,
2013-04-14 19:18:00,45.0,29.0,25.11,WNW,295,3.0,-999.0,53,-99.99,,,0.00,weatherlink.com 1.10,2013-04-14 23:18:00,
2013-04-14 19:33:00,44.6,29.0,25.11,WSW,252,0.0,-999.0,54,-99.99,,,0.00,weatherlink.com 1.10,2013-04-14 23:33:00,
2013-04-14 19:48:00,43.7,29.0,25.11,SW,215,0.0,-999.0,56,-99.99,,,0.00,weatherlink.com 1.10,2013-04-14 23:48:00,
2013-04-14 20:03:00,43.0,29.0,25.11,WSW,242,0.0,-999.0,58,-99.99,,,0.00,weatherlink.com 1.10,2013-04-15 00:03:00,
2013-04-14 20:18:00,42.2,29.0,25.11,WSW,242,0.0,-999.0,59,-99.99,,,0.00,weatherlink.com 1.10,2013-04-15 00:18:00,
2013-04-14 20:33:00,41.5,29.0,25.11,WSW,242,0.0,-999.0,61,-99.99,,,0.00,weatherlink.com 1.10,2013-04-15 00:33:00,
2013-04-14 20:48:00,40.6,28.0,25.11,WSW,242,0.0,-999.0,62,-99.99,,,0.00,weatherlink.com 1.10,2013-04-15 00:48:00,
2013-04-14 21:03:00,39.8,28.0,25.11,WSW,242,0.0,-999.0,64,-99.99,,,0.00,weatherlink.com 1.10,2013-04-15 01:03:00,
2013-04-14 21:18:00,39.1,28.0,25.11,WSW,242,0.0,-999.0,65,-99.99,,,0.00,weatherlink.com 1.10,2013-04-15 01:18:00,
2013-04-14 21:33:00,38.3,29.0,25.11,WSW,241,0.0,-999.0,68,-99.99,,,0.00,weatherlink.com 1.10,2013-04-15 01:33:00,
2013-04-14 21:47:00,37.5,28.0,25.11,WSW,242,0.0,-999.0,69,-99.99,,,0.00,weatherlink.com 1.10,2013-04-15 01:47:00,
2013-04-14 22:02:00,36.8,28.0,25.11,WSW,242,0.0,-999.0,71,-99.99,,,0.00,weatherlink.com 1.10,2013-04-15 02:02:00,
2013-04-14 22:17:00,36.1,29.0,25.11,WSW,241,0.0,-999.0,75,-99.99,,,0.00,weatherlink.com 1.10,2013-04-15 02:17:00,
2013-04-14 22:33:00,35.4,29.0,25.11,WSW,241,0.0,-999.0,76,-99.99,,,0.00,weatherlink.com 1.10,2013-04-15 02:33:00,
2013-04-14 22:48:00,34.7,28.0,25.11,WSW,242,0.0,-999.0,77,-99.99,,,0.00,weatherlink.com 1.10,2013-04-15 02:48:00,
2013-04-14 23:03:00,34.2,28.0,25.11,WSW,242,0.0,-999.0,78,-99.99,,,0.00,weatherlink.com 1.10,2013-04-15 03:03:00,
2013-04-14 23:18:00,33.6,28.0,25.03,WSW,242,0.0,-999.0,79,-99.99,,,0.00,weatherlink.com 1.10,2013-04-15 03:18:00,
2013-04-14 23:33:00,33.1,28.0,24.96,WSW,241,0.0,-999.0,80,-99.99,,,0.00,weatherlink.com 1.10,2013-04-15 03:33:00,
2013-04-14 23:48:00,32.6,27.0,24.84,WSW,241,0.0,-999.0,81,-99.99,,,0.00,weatherlink.com 1.10,2013-04-15 03:48:00,